TimePST,TemperatureF,Dew PointF,Humidity,Sea Level PressureIn,VisibilityMPH,Wind Direction,Wind SpeedMPH,Gust SpeedMPH,PrecipitationIn,Events,Conditions,WindDirDegrees,DateUTC
12:53 AM,45.0,21.0,39,30.22,10.0,NW,4.6,-,N/A,,Clear,310,2011-12-28 08:53:00
1:53 AM,43.0,23.0,45,30.23,10.0,NNW,6.9,-,N/A,,Clear,330,2011-12-28 09:53:00
2:53 AM,39.0,26.1,60,30.23,10.0,Calm,Calm,-,N/A,,Clear,0,2011-12-28 10:53:00
3:53 AM,43.0,21.0,42,30.22,10.0,WNW,3.5,-,N/A,,Clear,300,2011-12-28 11:53:00
4:53 AM,37.9,27.0,65,30.22,10.0,Calm,Calm,-,N/A,,Clear,0,2011-12-28 12:53:00
5:53 AM,43.0,25.0,49,30.24,10.0,Calm,Calm,-,N/A,,Clear,0,2011-12-28 13:53:00
6:53 AM,42.1,21.0,43,30.25,10.0,NNW,4.6,-,N/A,,Clear,330,2011-12-28 14:53:00
7:53 AM,45.0,25.0,46,30.26,10.0,Calm,Calm,-,N/A,,Clear,0,2011-12-28 15:53:00
8:53 AM,55.0,19.9,25,30.28,10.0,NW,3.5,-,N/A,,Clear,320,2011-12-28 16:53:00
9:53 AM,62.1,19.0,19,30.28,10.0,Calm,Calm,-,N/A,,Clear,0,2011-12-28 17:53:00
10:53 AM,66.0,19.9,17,30.25,10.0,Calm,Calm,-,N/A,,Clear,0,2011-12-28 18:53:00
11:53 AM,69.1,19.9,15,30.21,10.0,SSE,3.5,-,N/A,,Clear,150,2011-12-28 19:53:00
12:53 PM,71.1,19.9,14,30.18,10.0,East,4.6,-,N/A,,Clear,100,2011-12-28 20:53:00
1:53 PM,73.0,21.0,14,30.15,10.0,Variable,4.6,-,N/A,,Clear,0,2011-12-28 21:53:00
2:53 PM,73.0,18.0,12,30.15,10.0,SSE,4.6,-,N/A,,Clear,160,2011-12-28 22:53:00
3:53 PM,72.0,19.9,14,30.15,10.0,East,3.5,-,N/A,,Clear,90,2011-12-28 23:53:00
4:53 PM,66.0,23.0,20,30.16,10.0,Calm,Calm,-,N/A,,Clear,0,2011-12-29 00:53:00
5:53 PM,60.1,28.9,31,30.17,10.0,Calm,Calm,-,N/A,,Clear,0,2011-12-29 01:53:00
6:53 PM,55.0,21.0,27,30.17,10.0,NW,8.1,-,N/A,,Clear,320,2011-12-29 02:53:00
7:53 PM,54.0,21.0,28,30.17,10.0,NNW,8.1,-,N/A,,Clear,330,2011-12-29 03:53:00
8:53 PM,51.1,24.1,35,30.16,10.0,North,5.8,-,N/A,,Clear,350,2011-12-29 04:53:00
9:53 PM,50.0,24.1,36,30.16,10.0,WNW,4.6,-,N/A,,Clear,300,2011-12-29 05:53:00
10:53 PM,46.0,28.9,51,30.15,10.0,Calm,Calm,-,N/A,,Clear,0,2011-12-29 06:53:00
11:53 PM,53.1,19.9,27,30.13,10.0,NW,5.8,-,N/A,,Clear,310,2011-12-29 07:53:00